Madison, MN

6:09 AM CDT on August 27, 2016 (GMT -0500)
Madison-Lac Qui Parle County

Weather History for KDXX - June, 2013

Change the Weather History Date:

Tuesday, June 18, 2013

  Actual Average (KAQP) Record (KAQP)
Temperature  
Mean Temperature 64 °F -  
Max Temperature 77 °F 75 °F 89 °F (2016)
Min Temperature 51 °F 54 °F 46 °F (2004)
Degree Days  
Heating Degree Days 1    
Growing Degree Days 14 (Base 50)    
Moisture  
Dew Point 53 °F    
Average Humidity 65    
Maximum Humidity 94    
Minimum Humidity 36    
Precipitation  
Precipitation 0.00 in - - ()
Sea Level Pressure  
Sea Level Pressure 30.04 in    
Wind  
Wind Speed 6 mph (East)    
Max Wind Speed 15 mph    
Max Gust Speed 25 mph    
Visibility 10 miles    
Events      
Averages and records for this station are not official NWS values.
T = Trace of Precipitation, MM = Missing Value Source: NWS Daily Summary

Daily Weather History Graph

Daily Weather History Graph

Search for Another Location

Airport or City:

Trip Planner

Search our weather history database for the weather conditions in past years. The results will help you decide how hot, cold, wet, or windy it might be!

Date:

Astronomy

Jun. 18, 2013 Rise Set
Actual Time 5:37 AM CDT 9:14 PM CDT
Civil Twilight 5:00 AM CDT 9:51 PM CDT
Nautical Twilight 4:10 AM CDT 10:41 PM CDT
Astronomical Twilight 3:04 AM CDT 11:47 PM CDT
Moon 3:50 PM CDT (6/18) 1:58 AM CDT (6/18)
Length of Visible Light 16h 51m
Length of Day
15h 36m
Waxing Gibbous, 71% of the Moon is Illuminated
Jun 18
Waxing Gibbous
Jun 23
Full
Jun 29
Last Quarter
Jul 8
New
Jul 15
First Quarter

Hourly Weather History & Observations

Time (CDT) Temp. Dew Point Humidity Pressure Visibility Wind Dir Wind Speed Gust Speed Precip Events Conditions
12:13 AM 64.4 °F 53.6 °F 68% 30.02 in 10.0 mi NE 15.0 mph 25.3 mph N/A   Scattered Clouds
12:34 AM 62.6 °F 53.6 °F 72% 30.02 in 10.0 mi ENE 10.4 mph - N/A   Clear
12:54 AM 62.6 °F 51.8 °F 68% 30.01 in 10.0 mi ENE 8.1 mph - N/A   Clear
1:13 AM 60.8 °F 53.6 °F 77% 30.02 in 10.0 mi East 8.1 mph - N/A   Clear
1:34 AM 60.8 °F 55.4 °F 82% 30.02 in 10.0 mi NE 5.8 mph - N/A   Clear
1:53 AM 60.8 °F 55.4 °F 82% 30.03 in 10.0 mi North 4.6 mph - N/A   Clear
2:14 AM 60.8 °F 55.4 °F 82% 30.03 in 10.0 mi NNW 3.5 mph - N/A   Scattered Clouds
2:34 AM 59.0 °F 53.6 °F 82% 30.03 in 10.0 mi Calm Calm - N/A   Scattered Clouds
2:53 AM 57.2 °F 53.6 °F 88% 30.03 in 10.0 mi Calm Calm - N/A   Clear
3:14 AM 57.2 °F 55.4 °F 94% 30.04 in 10.0 mi Calm Calm - N/A   Clear
3:34 AM 57.2 °F 53.6 °F 88% 30.06 in 10.0 mi Calm Calm - N/A   Clear
3:53 AM 57.2 °F 53.6 °F 88% 30.06 in 10.0 mi Calm Calm - N/A   Clear
4:14 AM 57.2 °F 53.6 °F 88% 30.06 in 10.0 mi Calm Calm - N/A   Clear
4:34 AM 57.2 °F 53.6 °F 88% 30.06 in 10.0 mi Calm Calm - N/A   Clear
4:53 AM 55.4 °F 51.8 °F 88% 30.06 in 10.0 mi Calm Calm - N/A   Clear
5:14 AM 53.6 °F 50.0 °F 88% 30.07 in 10.0 mi Calm Calm - N/A   Clear
5:34 AM 53.6 °F 50.0 °F 88% 30.07 in 10.0 mi Calm Calm - N/A   Clear
5:53 AM 51.8 °F 50.0 °F 94% 30.08 in 10.0 mi NNE 4.6 mph - N/A   Clear
6:14 AM 53.6 °F 51.8 °F 94% 30.08 in 10.0 mi NE 5.8 mph - N/A   Clear
6:34 AM 55.4 °F 53.6 °F 94% 30.09 in 10.0 mi NE 3.5 mph - N/A   Clear
6:53 AM 57.2 °F 53.6 °F 88% 30.08 in 10.0 mi NE 6.9 mph - N/A   Clear
7:14 AM 57.2 °F 53.6 °F 88% 30.08 in 10.0 mi NE 5.8 mph - N/A   Clear
7:33 AM 59.0 °F 55.4 °F 88% 30.09 in 10.0 mi NNE 5.8 mph - N/A   Clear
7:53 AM 59.0 °F 53.6 °F 82% 30.08 in 10.0 mi ENE 5.8 mph - N/A   Scattered Clouds
8:14 AM 60.8 °F 53.6 °F 77% 30.09 in 10.0 mi NE 5.8 mph - N/A   Clear
8:33 AM 60.8 °F 55.4 °F 82% 30.09 in 10.0 mi NE 6.9 mph - N/A   Clear
8:53 AM 62.6 °F 55.4 °F 77% 30.09 in 10.0 mi ENE 5.8 mph - N/A   Clear
9:14 AM 62.6 °F 55.4 °F 77% 30.09 in 10.0 mi NNE 4.6 mph - N/A   Clear
9:33 AM 64.4 °F 55.4 °F 73% 30.08 in 10.0 mi East 9.2 mph - N/A   Clear
9:54 AM 64.4 °F 55.4 °F 73% 30.09 in 10.0 mi ENE 4.6 mph - N/A   Clear
10:14 AM 66.2 °F 55.4 °F 68% 30.09 in 10.0 mi East 5.8 mph - N/A   Clear
10:33 AM 66.2 °F 53.6 °F 64% 30.09 in 10.0 mi East 5.8 mph - N/A   Clear
10:54 AM 68.0 °F 55.4 °F 64% 30.09 in 10.0 mi Calm Calm - N/A   Clear
11:14 AM 69.8 °F 55.4 °F 60% 30.09 in 10.0 mi NE 3.5 mph - N/A   Clear
11:33 AM 69.8 °F 55.4 °F 60% 30.09 in 10.0 mi East 5.8 mph - N/A   Clear
11:54 AM 71.6 °F 55.4 °F 57% 30.08 in 10.0 mi East 5.8 mph - N/A   Clear
12:14 PM 71.6 °F 55.4 °F 57% 30.08 in 10.0 mi NE 6.9 mph - N/A   Clear
12:33 PM 71.6 °F 55.4 °F 57% 30.07 in 10.0 mi ENE 4.6 mph - N/A   Clear
12:54 PM 71.6 °F 55.4 °F 57% 30.07 in 10.0 mi ENE 8.1 mph - N/A   Clear
1:13 PM 73.4 °F 51.8 °F 47% 30.06 in 10.0 mi NE 5.8 mph - N/A   Clear
1:34 PM 73.4 °F 53.6 °F 50% 30.05 in 10.0 mi East 6.9 mph - N/A   Unknown
1:54 PM 73.4 °F 53.6 °F 50% 30.04 in 10.0 mi East 10.4 mph - N/A   Clear
2:13 PM 73.4 °F 53.6 °F 50% 30.05 in 10.0 mi SE 8.1 mph - N/A   Clear
2:34 PM 75.2 °F 53.6 °F 47% 30.04 in 10.0 mi ESE 10.4 mph - N/A   Clear
2:54 PM 75.2 °F 51.8 °F 44% 30.04 in 10.0 mi Calm Calm - N/A   Clear
3:13 PM 75.2 °F 53.6 °F 47% 30.03 in 10.0 mi SSE 3.5 mph - N/A   Clear
3:33 PM 75.2 °F 51.8 °F 44% 30.03 in 10.0 mi SSE 3.5 mph - N/A   Clear
3:54 PM 75.2 °F 51.8 °F 44% 30.03 in 10.0 mi East 5.8 mph - N/A   Scattered Clouds
4:13 PM 77.0 °F 50.0 °F 39% 30.02 in 10.0 mi SSE 4.6 mph - N/A   Scattered Clouds
4:33 PM 75.2 °F 51.8 °F 44% 30.02 in 10.0 mi East 5.8 mph - N/A   Clear
4:54 PM 75.2 °F 50.0 °F 41% 30.01 in 10.0 mi SE 6.9 mph - N/A   Scattered Clouds
5:13 PM 77.0 °F 48.2 °F 36% 30.01 in 10.0 mi Calm Calm - N/A   Scattered Clouds
5:33 PM 77.0 °F 51.8 °F 41% 30.01 in 10.0 mi East 6.9 mph - N/A   Clear
5:54 PM 75.2 °F 50.0 °F 41% 30.00 in 10.0 mi South 6.9 mph - N/A   Mostly Cloudy
6:13 PM 77.0 °F 50.0 °F 39% 30.00 in 10.0 mi Calm Calm - N/A   Scattered Clouds
6:33 PM 77.0 °F 50.0 °F 39% 29.99 in 10.0 mi East 4.6 mph - N/A   Scattered Clouds
6:54 PM 75.2 °F 51.8 °F 44% 29.99 in 10.0 mi ENE 5.8 mph - N/A   Scattered Clouds
7:13 PM 75.2 °F 51.8 °F 44% 29.99 in 10.0 mi East 9.2 mph - N/A   Mostly Cloudy
7:34 PM 75.2 °F 51.8 °F 44% 29.99 in 10.0 mi ESE 11.5 mph - N/A   Mostly Cloudy
7:54 PM 73.4 °F 51.8 °F 47% 29.99 in 10.0 mi East 9.2 mph - N/A   Scattered Clouds
8:13 PM 73.4 °F 51.8 °F 47% 29.98 in 10.0 mi ESE 9.2 mph - N/A   Clear
8:34 PM 73.4 °F 51.8 °F 47% 29.98 in 10.0 mi ESE 11.5 mph - N/A   Clear
8:54 PM 71.6 °F 51.8 °F 50% 29.98 in 10.0 mi ESE 6.9 mph - N/A   Clear
9:13 PM 71.6 °F 51.8 °F 50% 29.98 in 10.0 mi ESE 8.1 mph - N/A   Clear
9:34 PM 69.8 °F 53.6 °F 56% 29.99 in 10.0 mi ESE 8.1 mph - N/A   Clear
9:54 PM 68.0 °F 53.6 °F 60% 30.00 in 10.0 mi ESE 5.8 mph - N/A   Clear
10:13 PM 69.8 °F 53.6 °F 56% 30.01 in 10.0 mi SE 6.9 mph - N/A   Clear
10:34 PM 66.2 °F 53.6 °F 64% 30.01 in 10.0 mi ESE 6.9 mph - N/A   Clear
10:54 PM 66.2 °F 53.6 °F 64% 30.00 in 10.0 mi SE 6.9 mph - N/A   Clear
11:13 PM 66.2 °F 53.6 °F 64% 30.00 in 10.0 mi SE 8.1 mph - N/A   Clear
11:34 PM 66.2 °F 53.6 °F 64% 30.00 in 10.0 mi SE 6.9 mph - N/A   Scattered Clouds
11:54 PM 66.2 °F 55.4 °F 68% 30.00 in 10.0 mi SE 8.1 mph - N/A   Mostly Cloudy